Location: Coupvray
(48.8929°N, 2.7967°E)
Time: 07:08:08
(UTC+00:00)

ATLAS 5 CENTAUR R/B - Pass Details

Date: 14 July 2020
Orbit: 534 x 1124 km, 63.4° (Epoch: 09 August)

Event Time Altitude Azimuth Distance (km) Brightness Sun altitude
Rises 01:33:24 0° 319° (NW) 3,186 5.6 -16.1°
Reaches altitude 10° 01:35:42 10° 324° (NW) 2,347 4.9 -16.0°
Maximum altitude 01:41:03 53° 41° (NE) 1,077 3.1 -15.6°
Drops below altitude 10° 01:47:18 10° 118° (ESE) 2,737 4.8 -15.1°
Sets 01:50:09 0° 123° (ESE) 3,763 5.5 -14.9°
